Location: Bad Salzschlirf
(50.3750°N, 9.3000°E)
Time: 06:01:29
(UTC+01:00)

ISS - Pass Details

Date: 23 January 2021
Orbit: 418 x 421 km, 51.6° (Epoch: 23 January)

Event Time Altitude Azimuth Distance (km) Brightness Sun altitude
Rises 19:30:24 0° 257° (WSW) 2,367 1.4 -23.5°
Reaches altitude 10° 19:32:29 10° 259° (WSW) 1,504 0.1 -23.8°
Enters shadow 19:34:47 40° 263° (W) 635 -2.4 -24.2°
